Home > Weather > Acharnes > Past weeks

Flag for Greece Past Weather in Acharnes, Greece — Yesterday and Last 2 Weeks

Now
68 °F

Passing clouds.


Feels Like: 68 °F
Forecast: 58 / 84 °F
Wind: No wind

Location: Elefsis Airport

Current Time: May 28, 2016 at 11:16:17 PM

Latest Report: May 28, 2016 at 10:20 PM


Visibility: N/A

Pressure: 30.01 "Hg

Humidity: 60%

Dew Point: 54 °F

Location of AcharnesLocation

Past Weather in Acharnes — Graph

°F

Acharnes Temperature Yesterday

Maximum temperature yesterday: 88 °F (at 2:50 PM)
Minimum temperature yesterday: 61 °F (at 5:50 AM)
Average temperature yesterday: 75 °F

High & Low Weather Summary for the Past Weeks

 TemperatureHumidityPressure
High88 °F (May 27, 2:50 PM)100% (May 27, 2:50 PM)30.04 "Hg (May 27, 2:50 PM)
Low54 °F (May 23, 3:50 AM)15% (May 24, 11:50 PM)29.65 "Hg (May 21, 2:50 PM)
Average70 °F47%29.89 "Hg
* Reported May 13 9:20 PM — May 28 9:50 PM, Acharnes, Weather by CustomWeather, © 2016

Note: Actual official high and low records may vary slightly from our data, if they occured in-between our weather recording intervals... More about our weather records

Advertising

Acharnes Weather History for the Previous 24 Hours

Scroll right to see more
 ConditionsComfort  
Time TempWeatherWind HumidityBarometerVisibility
9:50 PM
Sat, May 28
70 °FPassing clouds.No wind60%30.01 "HgN/A
9:20 PM70 °FPassing clouds.5 mph60%30.01 "HgN/A
8:50 PM70 °FPassing clouds.5 mph64%30.01 "HgN/A
7:50 PM72 °FPassing clouds.7 mph61%29.98 "HgN/A
7:20 PM75 °FPassing clouds.9 mph54%29.98 "HgN/A
6:50 PM75 °FPassing clouds.12 mph54%29.98 "HgN/A
6:20 PM77 °FPassing clouds.12 mph51%29.98 "HgN/A
5:50 PM79 °FPassing clouds.12 mph42%29.98 "HgN/A
5:20 PM79 °FPassing clouds.10 mph42%29.98 "HgN/A
4:50 PM81 °FPassing clouds.12 mph34%29.98 "HgN/A
4:20 PM82 °FPassing clouds.10 mph32%29.98 "HgN/A
3:50 PM82 °FPassing clouds.12 mph32%29.98 "HgN/A
3:20 PM82 °FScattered clouds.10 mph32%29.98 "HgN/A
2:50 PM82 °FScattered clouds.12 mph32%29.98 "HgN/A
2:20 PM82 °FScattered clouds.13 mph30%29.98 "HgN/A
1:50 PM82 °FScattered clouds.13 mph30%29.98 "HgN/A
1:20 PM84 °FScattered clouds.10 mph27%30.01 "HgN/A
12:50 PM82 °FPassing clouds.10 mph30%30.01 "HgN/A
12:20 PM82 °FPassing clouds.9 mph30%30.01 "HgN/A
11:50 AM82 °FPassing clouds.7 mph28%30.01 "HgN/A
11:20 AM81 °FPassing clouds.8 mph30%30.01 "HgN/A
10:50 AM81 °FPassing clouds.5 mph30%30.01 "HgN/A
10:20 AM79 °FPassing clouds.No wind32%30.01 "HgN/A
9:50 AM79 °FPassing clouds.No wind37%30.01 "HgN/A
9:20 AM77 °FPassing clouds.No wind34%30.01 "HgN/A
8:50 AM75 °FPassing clouds.No wind41%30.01 "HgN/A
8:20 AM75 °FPassing clouds.No wind36%30.01 "HgN/A
7:50 AM72 °FPassing clouds.3 mph41%30.01 "HgN/A
7:20 AM66 °FPassing clouds.3 mph52%30.01 "HgN/A
6:50 AM63 °FPassing clouds.No wind56%30.01 "HgN/A
6:20 AM61 °FPassing clouds.3 mph59%30.01 "HgN/A
5:50 AM61 °FPassing clouds.3 mph63%30.01 "HgN/A
5:20 AM61 °FPassing clouds.5 mph63%30.01 "HgN/A
4:50 AM63 °FPassing clouds.5 mph59%29.98 "HgN/A
4:20 AM63 °FPassing clouds.No wind59%29.98 "HgN/A
3:50 AM63 °FPassing clouds.5 mph59%29.98 "HgN/A
3:20 AM63 °FPassing clouds.5 mph59%29.98 "HgN/A
2:50 AM63 °FPassing clouds.6 mph59%29.98 "HgN/A
2:20 AM64 °FPassing clouds.3 mph56%29.98 "HgN/A
1:50 AM64 °FPassing clouds.5 mph56%29.98 "HgN/A
1:20 AM66 °FPassing clouds.3 mph52%30.01 "HgN/A
12:50 AM66 °FPassing clouds.3 mph52%30.01 "HgN/A
12:20 AM66 °FPassing clouds.5 mph56%30.01 "HgN/A
11:50 PM
Fri, May 27
68 °FPassing clouds.5 mph53%30.01 "HgN/A
11:20 PM66 °FPassing clouds.3 mph60%30.01 "HgN/A
Weather by CustomWeather, © 2016

See weather overviewHow to use our weather pages